Tulsa International Airport Airport (TUL)

 

Airport Diagram
Current Weather/Forecast (VFR Conditions)
METAR KTUL 250153Z 02012KT 10SM CLR 10/M02 A3020 RMK AO2 SLP226 T01001017
TAF KTUL 242324Z 2500/2524 35011G19KT P6SM SKC FM250100 01011KT P6SM FEW150 FM251500 04011KT P6SM SCT100

All Charts
General
Chart Name Download
AIRPORT DIAGRAM
TAKEOFF MINIMUMS
ALTERNATE MINIMUMS
RADAR MINIMUMS

Departures
Chart Name Download
TULSA EIGHT

Arrivals
Chart Name Download
VINTA TWO

Approaches
Chart Name Download
ILS OR LOC RWY 18L
ILS OR LOC RWY 18R
ILS OR LOC RWY 36R
ILS RWY 36R (SA CAT I)
ILS RWY 36R (CAT II)
RNAV (GPS) RWY 08
RNAV (GPS) RWY 18L
RNAV (GPS) RWY 18R
RNAV (GPS) RWY 26
RNAV (GPS) RWY 36L
RNAV (GPS) RWY 36R
VOR/DME RWY 08
HI-VOR/DME OR TACAN RWY 26
VOR OR TACAN RWY 26